Time,TemperatureF,DewpointF,PressureIn,WindDirection,WindDirectionDegrees,WindSpeedMPH,WindSpeedGustMPH,Humidity,HourlyPrecipIn,Conditions,Clouds,dailyrainin,SoftwareType,DateUTC
2013-07-20 00:05:00,74.8,70.3,29.91,SSE,152,0.0,0.0,86,0.00,,,0.00,meteobridge,2013-07-20 04:05:00,
2013-07-20 00:10:00,74.7,70.2,29.91,SSE,152,0.0,2.0,86,0.00,,,0.00,meteobridge,2013-07-20 04:10:00,
2013-07-20 00:15:00,74.7,70.5,29.90,SSE,152,0.0,0.0,87,0.00,,,0.00,meteobridge,2013-07-20 04:15:00,
2013-07-20 00:20:00,74.7,70.5,29.90,SSE,152,0.0,0.9,87,0.00,,,0.00,meteobridge,2013-07-20 04:20:00,
2013-07-20 00:25:00,74.5,70.3,29.90,SSE,152,0.0,0.0,87,0.00,,,0.00,meteobridge,2013-07-20 04:25:00,
2013-07-20 00:30:00,74.5,70.7,29.90,SSE,152,0.0,0.0,88,0.00,,,0.00,meteobridge,2013-07-20 04:30:00,
2013-07-20 00:36:00,74.1,70.3,29.90,SSE,152,0.0,0.9,88,0.00,,,0.00,meteobridge,2013-07-20 04:36:00,
2013-07-20 00:41:00,74.1,70.7,29.90,SSE,152,0.9,2.9,89,0.00,,,0.00,meteobridge,2013-07-20 04:41:00,
2013-07-20 00:46:00,73.9,70.5,29.89,SSE,152,0.0,0.0,89,0.00,,,0.00,meteobridge,2013-07-20 04:46:00,
2013-07-20 00:51:00,73.9,70.5,29.89,SSE,152,0.0,0.0,89,0.00,,,0.00,meteobridge,2013-07-20 04:51:00,
2013-07-20 00:56:00,73.9,70.9,29.89,SSE,152,0.0,0.0,90,0.00,,,0.00,meteobridge,2013-07-20 04:56:00,
2013-07-20 01:01:00,73.9,70.9,29.90,SSE,154,0.0,0.0,90,0.00,,,0.00,meteobridge,2013-07-20 05:01:00,
2013-07-20 01:07:00,73.9,70.9,29.90,SSE,152,0.0,0.0,90,0.00,,,0.00,meteobridge,2013-07-20 05:07:00,
2013-07-20 01:12:00,73.9,71.1,29.90,SSE,152,0.0,0.0,91,0.00,,,0.00,meteobridge,2013-07-20 05:12:00,
2013-07-20 01:17:00,73.9,71.1,29.90,SSE,152,0.0,0.0,91,0.00,,,0.00,meteobridge,2013-07-20 05:17:00,
2013-07-20 01:22:00,73.9,71.1,29.90,SSE,168,0.9,2.0,91,0.00,,,0.00,meteobridge,2013-07-20 05:22:00,
2013-07-20 01:27:00,73.9,71.1,29.90,WSW,244,2.9,2.9,91,0.00,,,0.00,meteobridge,2013-07-20 05:27:00,
2013-07-20 01:32:00,73.9,71.1,29.90,SSW,209,0.0,4.0,91,0.00,,,0.00,meteobridge,2013-07-20 05:32:00,
2013-07-20 01:37:00,73.9,71.1,29.90,SW,215,2.0,2.0,91,0.00,,,0.00,meteobridge,2013-07-20 05:37:00,
2013-07-20 01:42:00,73.9,71.1,29.90,WSW,237,2.0,2.0,91,0.00,,,0.00,meteobridge,2013-07-20 05:42:00,
2013-07-20 01:47:00,73.9,71.4,29.90,SSW,192,0.9,6.0,92,0.00,,,0.00,meteobridge,2013-07-20 05:47:00,
2013-07-20 01:52:00,73.9,71.4,29.90,SW,232,0.9,2.0,92,0.00,,,0.00,meteobridge,2013-07-20 05:52:00,
2013-07-20 01:57:00,73.9,71.4,29.90,SW,224,0.9,2.9,92,0.00,,,0.00,meteobridge,2013-07-20 05:57:00,
2013-07-20 02:02:00,73.9,71.4,29.90,SW,226,0.0,2.9,92,0.00,,,0.00,meteobridge,2013-07-20 06:02:00,
2013-07-20 02:08:00,73.9,71.4,29.90,SSW,192,0.0,2.0,92,0.00,,,0.00,meteobridge,2013-07-20 06:08:00,
2013-07-20 02:13:00,73.9,71.4,29.90,SW,234,2.9,6.0,92,0.00,,,0.00,meteobridge,2013-07-20 06:13:00,
2013-07-20 02:18:00,73.9,71.8,29.90,South,179,2.9,2.9,93,0.00,,,0.00,meteobridge,2013-07-20 06:18:00,
2013-07-20 02:23:00,73.9,71.8,29.90,South,191,0.0,6.9,93,0.00,,,0.00,meteobridge,2013-07-20 06:23:00,
2013-07-20 02:28:00,73.9,71.8,29.90,SSW,196,0.9,8.1,93,0.00,,,0.00,meteobridge,2013-07-20 06:28:00,
2013-07-20 02:33:00,73.9,71.8,29.90,SSW,203,2.0,6.9,93,0.00,,,0.00,meteobridge,2013-07-20 06:33:00,
2013-07-20 02:38:00,73.9,71.8,29.90,WSW,237,2.9,6.0,93,0.00,,,0.00,meteobridge,2013-07-20 06:38:00,
2013-07-20 02:43:00,73.9,71.8,29.90,South,178,6.0,6.9,93,0.00,,,0.00,meteobridge,2013-07-20 06:43:00,
2013-07-20 02:48:00,73.9,71.8,29.89,SSW,205,2.9,6.9,93,0.00,,,0.00,meteobridge,2013-07-20 06:48:00,
2013-07-20 02:53:00,73.9,71.8,29.89,West,263,4.9,6.0,93,0.00,,,0.00,meteobridge,2013-07-20 06:53:00,
2013-07-20 02:58:00,73.9,71.8,29.89,WSW,247,2.9,2.9,93,0.00,,,0.00,meteobridge,2013-07-20 06:58:00,
2013-07-20 03:03:00,73.9,71.8,29.89,WSW,248,0.0,0.0,93,0.00,,,0.00,meteobridge,2013-07-20 07:03:00,
2013-07-20 03:08:00,73.9,71.8,29.89,WSW,247,0.0,2.0,93,0.00,,,0.00,meteobridge,2013-07-20 07:08:00,
2013-07-20 03:13:00,73.9,71.8,29.89,WSW,247,2.0,2.0,93,0.00,,,0.00,meteobridge,2013-07-20 07:13:00,
2013-07-20 03:19:00,73.8,71.6,29.89,WSW,247,0.0,2.0,93,0.00,,,0.00,meteobridge,2013-07-20 07:19:00,
2013-07-20 03:24:00,73.8,71.6,29.89,WSW,247,0.0,2.0,93,0.00,,,0.00,meteobridge,2013-07-20 07:24:00,
2013-07-20 03:29:00,73.6,71.4,29.89,WSW,247,0.0,0.9,93,0.00,,,0.00,meteobridge,2013-07-20 07:29:00,
2013-07-20 03:34:00,73.6,71.8,29.88,WSW,247,0.9,2.9,94,0.00,,,0.00,meteobridge,2013-07-20 07:34:00,
2013-07-20 03:39:00,73.6,71.8,29.88,WSW,247,0.0,4.0,94,0.00,,,0.00,meteobridge,2013-07-20 07:39:00,
2013-07-20 03:44:00,73.2,71.4,29.88,WSW,248,0.9,2.0,94,0.00,,,0.00,meteobridge,2013-07-20 07:44:00,
2013-07-20 03:49:00,73.2,71.4,29.88,WSW,248,0.0,0.0,94,0.00,,,0.00,meteobridge,2013-07-20 07:49:00,
2013-07-20 03:54:00,73.2,71.4,29.88,SSW,213,0.9,2.0,94,0.00,,,0.00,meteobridge,2013-07-20 07:54:00,
2013-07-20 03:59:00,73.2,71.4,29.87,SSW,212,0.0,0.9,94,0.00,,,0.00,meteobridge,2013-07-20 07:59:00,
2013-07-20 04:04:00,73.2,71.4,29.87,SW,219,0.0,2.9,94,0.00,,,0.00,meteobridge,2013-07-20 08:04:00,
2013-07-20 04:10:00,73.2,71.4,29.87,SW,219,0.0,0.0,94,0.00,,,0.00,meteobridge,2013-07-20 08:10:00,
2013-07-20 04:15:00,73.2,71.4,29.87,SW,219,0.0,0.9,94,0.00,,,0.00,meteobridge,2013-07-20 08:15:00,
2013-07-20 04:20:00,73.2,71.4,29.87,SW,219,0.0,0.9,94,0.00,,,0.00,meteobridge,2013-07-20 08:20:00,
2013-07-20 04:25:00,73.2,71.8,29.87,SW,220,0.0,2.9,95,0.00,,,0.00,meteobridge,2013-07-20 08:25:00,
2013-07-20 04:30:00,73.2,71.8,29.86,SW,220,0.0,0.0,95,0.00,,,0.00,meteobridge,2013-07-20 08:30:00,
2013-07-20 04:36:00,73.2,71.8,29.86,SW,220,0.0,0.0,95,0.00,,,0.00,meteobridge,2013-07-20 08:36:00,
2013-07-20 04:41:00,73.0,71.6,29.86,SW,220,0.0,0.0,95,0.00,,,0.00,meteobridge,2013-07-20 08:41:00,
2013-07-20 04:46:00,73.0,71.6,29.86,SW,220,0.0,0.0,95,0.00,,,0.00,meteobridge,2013-07-20 08:46:00,
2013-07-20 04:51:00,72.9,71.4,29.86,SW,220,0.0,0.0,95,0.00,,,0.00,meteobridge,2013-07-20 08:51:00,
2013-07-20 04:56:00,72.9,71.4,29.86,SW,220,0.0,0.0,95,0.00,,,0.00,meteobridge,2013-07-20 08:56:00,
2013-07-20 05:01:00,72.9,71.4,29.86,SW,220,0.0,0.0,95,0.00,,,0.00,meteobridge,2013-07-20 09:01:00,
2013-07-20 05:07:00,72.9,71.4,29.86,SW,220,0.0,0.0,95,0.00,,,0.00,meteobridge,2013-07-20 09:07:00,
2013-07-20 05:12:00,72.9,71.4,29.86,SW,220,0.9,0.9,95,0.00,,,0.00,meteobridge,2013-07-20 09:12:00,
2013-07-20 05:17:00,72.9,71.4,29.86,SW,220,0.0,2.0,95,0.00,,,0.00,meteobridge,2013-07-20 09:17:00,
2013-07-20 05:22:00,72.9,71.4,29.86,SW,220,0.0,0.0,95,0.00,,,0.00,meteobridge,2013-07-20 09:22:00,
2013-07-20 05:27:00,72.9,71.4,29.86,SW,220,0.0,2.0,95,0.00,,,0.00,meteobridge,2013-07-20 09:27:00,
2013-07-20 05:32:00,72.7,71.2,29.87,SW,220,0.0,0.0,95,0.00,,,0.00,meteobridge,2013-07-20 09:32:00,
2013-07-20 05:37:00,72.7,71.2,29.87,SW,220,0.0,0.0,95,0.00,,,0.00,meteobridge,2013-07-20 09:37:00,
2013-07-20 05:42:00,72.7,71.2,29.87,SW,220,0.0,0.0,95,0.00,,,0.00,meteobridge,2013-07-20 09:42:00,
2013-07-20 05:48:00,72.7,71.2,29.88,SW,220,0.0,0.9,95,0.00,,,0.00,meteobridge,2013-07-20 09:48:00,
2013-07-20 05:53:00,72.7,71.2,29.88,SW,220,0.0,0.0,95,0.00,,,0.00,meteobridge,2013-07-20 09:53:00,
2013-07-20 05:58:00,72.7,71.2,29.88,SW,220,0.0,0.0,95,0.00,,,0.00,meteobridge,2013-07-20 09:58:00,
2013-07-20 06:03:00,72.7,71.2,29.88,SW,220,0.0,0.0,95,0.00,,,0.00,meteobridge,2013-07-20 10:03:00,
2013-07-20 06:09:00,72.5,71.1,29.88,SW,220,0.0,0.9,95,0.00,,,0.00,meteobridge,2013-07-20 10:09:00,
2013-07-20 06:14:00,72.5,71.1,29.89,SW,220,0.0,0.0,95,0.00,,,0.00,meteobridge,2013-07-20 10:14:00,
2013-07-20 06:19:00,72.5,71.2,29.89,SSW,200,0.0,2.9,96,0.00,,,0.00,meteobridge,2013-07-20 10:19:00,
2013-07-20 06:24:00,72.3,71.1,29.89,SSW,200,0.0,0.0,96,0.00,,,0.00,meteobridge,2013-07-20 10:24:00,
2013-07-20 06:29:00,72.3,71.1,29.89,SSW,200,0.0,0.0,96,0.00,,,0.00,meteobridge,2013-07-20 10:29:00,
2013-07-20 06:34:00,72.3,71.1,29.89,SSW,200,0.0,0.0,96,0.00,,,0.00,meteobridge,2013-07-20 10:34:00,
2013-07-20 06:39:00,72.1,70.9,29.89,SSW,200,0.0,0.0,96,0.00,,,0.00,meteobridge,2013-07-20 10:39:00,
2013-07-20 06:45:00,72.1,70.9,29.90,SSW,200,0.0,0.0,96,0.00,,,0.00,meteobridge,2013-07-20 10:45:00,
2013-07-20 06:50:00,72.3,71.1,29.90,SSW,200,0.0,0.0,96,0.00,,,0.00,meteobridge,2013-07-20 10:50:00,
2013-07-20 07:00:00,72.5,71.2,29.90,SSW,200,0.0,0.0,96,0.00,,,0.00,meteobridge,2013-07-20 11:00:00,
2013-07-20 07:05:00,72.9,71.6,29.90,SSW,200,0.0,2.9,96,0.00,,,0.00,meteobridge,2013-07-20 11:05:00,
2013-07-20 07:10:00,73.0,71.8,29.90,SSW,196,2.0,4.0,96,0.00,,,0.00,meteobridge,2013-07-20 11:10:00,
2013-07-20 07:15:00,73.2,72.0,29.90,SSW,198,0.0,2.0,96,0.00,,,0.00,meteobridge,2013-07-20 11:15:00,
2013-07-20 07:20:00,73.6,72.1,29.90,SSE,164,0.0,0.9,95,0.00,,,0.00,meteobridge,2013-07-20 11:20:00,
2013-07-20 07:25:00,73.9,72.5,29.90,SSE,164,0.0,0.0,95,0.00,,,0.00,meteobridge,2013-07-20 11:25:00,
2013-07-20 07:30:00,73.9,72.5,29.91,SW,224,2.0,2.9,95,0.00,,,0.00,meteobridge,2013-07-20 11:30:00,
2013-07-20 07:35:00,74.5,72.7,29.91,SSW,196,6.9,6.9,94,0.00,,,0.00,meteobridge,2013-07-20 11:35:00,
2013-07-20 07:40:00,74.7,72.1,29.91,SW,219,0.0,4.0,92,0.00,,,0.00,meteobridge,2013-07-20 11:40:00,
2013-07-20 07:45:00,74.8,72.0,29.92,SSW,212,0.0,2.0,91,0.00,,,0.00,meteobridge,2013-07-20 11:45:00,
2013-07-20 07:51:00,74.8,72.0,29.92,West,280,0.0,2.9,91,0.00,,,0.00,meteobridge,2013-07-20 11:51:00,
2013-07-20 07:56:00,75.0,72.1,29.92,SW,236,0.0,2.0,91,0.00,,,0.00,meteobridge,2013-07-20 11:56:00,
2013-07-20 08:01:00,75.4,72.3,29.93,SSE,165,0.0,6.0,90,0.00,,,0.00,meteobridge,2013-07-20 12:01:00,
2013-07-20 08:06:00,75.7,72.3,29.93,SW,236,0.0,4.9,89,0.00,,,0.00,meteobridge,2013-07-20 12:06:00,
2013-07-20 08:11:00,75.9,72.1,29.93,SW,233,0.9,0.9,88,0.00,,,0.00,meteobridge,2013-07-20 12:11:00,
2013-07-20 08:16:00,76.1,72.0,29.93,West,271,0.0,2.0,87,0.00,,,0.00,meteobridge,2013-07-20 12:16:00,
2013-07-20 08:21:00,76.3,72.1,29.93,WSW,251,2.9,2.9,87,0.00,,,0.00,meteobridge,2013-07-20 12:21:00,
2013-07-20 08:26:00,76.5,72.0,29.93,SW,229,2.9,2.9,86,0.00,,,0.00,meteobridge,2013-07-20 12:26:00,
2013-07-20 08:31:00,76.8,72.3,29.93,SW,226,0.0,4.0,86,0.00,,,0.00,meteobridge,2013-07-20 12:31:00,
2013-07-20 08:41:00,77.5,72.3,29.93,SSW,208,0.0,6.0,84,0.00,,,0.00,meteobridge,2013-07-20 12:41:00,
2013-07-20 08:46:00,77.9,72.3,29.93,SW,215,0.0,4.9,83,0.00,,,0.00,meteobridge,2013-07-20 12:46:00,
2013-07-20 08:51:00,78.3,72.3,29.93,South,189,2.0,2.9,82,0.00,,,0.00,meteobridge,2013-07-20 12:51:00,
2013-07-20 08:56:00,78.4,72.1,29.93,WSW,237,0.9,8.1,81,0.00,,,0.00,meteobridge,2013-07-20 12:56:00,
2013-07-20 09:01:00,79.0,72.3,29.92,SW,217,2.0,6.9,80,0.00,,,0.00,meteobridge,2013-07-20 13:01:00,
2013-07-20 09:06:00,79.2,72.1,29.92,West,267,6.9,10.1,79,0.00,,,0.00,meteobridge,2013-07-20 13:06:00,
2013-07-20 09:11:00,79.3,72.3,29.92,West,267,2.0,6.0,79,0.00,,,0.00,meteobridge,2013-07-20 13:11:00,
2013-07-20 09:16:00,79.5,72.1,29.91,South,181,2.9,6.9,78,0.00,,,0.00,meteobridge,2013-07-20 13:16:00,
2013-07-20 09:21:00,79.9,72.3,29.91,SW,232,6.0,10.1,78,0.00,,,0.00,meteobridge,2013-07-20 13:21:00,
2013-07-20 09:26:00,80.1,72.5,29.91,WSW,241,2.9,8.1,78,0.00,,,0.00,meteobridge,2013-07-20 13:26:00,
2013-07-20 09:31:00,80.4,72.5,29.91,SW,222,2.9,8.1,77,0.00,,,0.00,meteobridge,2013-07-20 13:31:00,
2013-07-20 09:36:00,81.0,73.0,29.91,WSW,239,0.0,4.9,77,0.00,,,0.00,meteobridge,2013-07-20 13:36:00,
2013-07-20 09:41:00,81.1,73.2,29.91,SSW,213,2.0,4.9,77,0.00,,,0.00,meteobridge,2013-07-20 13:41:00,
2013-07-20 09:46:00,81.3,73.0,29.91,South,174,2.9,4.9,76,0.00,,,0.00,meteobridge,2013-07-20 13:46:00,
2013-07-20 09:51:00,81.9,73.6,29.91,WSW,237,2.0,2.9,76,0.00,,,0.00,meteobridge,2013-07-20 13:51:00,
2013-07-20 09:56:00,82.4,73.2,29.91,West,261,0.0,6.9,74,0.00,,,0.00,meteobridge,2013-07-20 13:56:00,
2013-07-20 10:01:00,82.9,73.8,29.91,SW,230,0.9,2.9,74,0.00,,,0.00,meteobridge,2013-07-20 14:01:00,
2013-07-20 10:06:00,83.5,73.6,29.91,West,270,2.0,8.1,72,0.00,,,0.00,meteobridge,2013-07-20 14:06:00,
2013-07-20 10:11:00,83.8,73.4,29.91,SSW,213,6.0,6.0,71,0.00,,,0.00,meteobridge,2013-07-20 14:11:00,
2013-07-20 10:16:00,84.0,73.6,29.91,South,174,4.0,4.9,71,0.00,,,0.00,meteobridge,2013-07-20 14:16:00,
2013-07-20 10:21:00,83.8,73.0,29.91,SSW,196,2.9,6.9,70,0.00,,,0.00,meteobridge,2013-07-20 14:21:00,
2013-07-20 10:26:00,84.0,73.6,29.91,West,271,0.9,4.9,71,0.00,,,0.00,meteobridge,2013-07-20 14:26:00,
2013-07-20 10:31:00,84.4,72.7,29.91,WSW,246,2.0,8.1,68,0.00,,,0.00,meteobridge,2013-07-20 14:31:00,
2013-07-20 10:41:00,84.9,72.7,29.91,SSW,199,2.9,10.1,67,0.00,,,0.00,meteobridge,2013-07-20 14:41:00,
2013-07-20 10:46:00,84.7,72.5,29.91,SSW,196,0.9,2.9,67,0.00,,,0.00,meteobridge,2013-07-20 14:46:00,
2013-07-20 10:51:00,85.3,72.7,29.91,South,182,2.0,4.9,66,0.00,,,0.00,meteobridge,2013-07-20 14:51:00,
2013-07-20 10:56:00,85.3,72.1,29.91,WNW,295,0.0,6.9,65,0.00,,,0.00,meteobridge,2013-07-20 14:56:00,
2013-07-20 11:01:00,85.8,72.1,29.90,West,278,2.9,6.0,64,0.00,,,0.00,meteobridge,2013-07-20 15:01:00,
2013-07-20 11:06:00,86.2,72.5,29.90,South,178,4.0,8.1,64,0.00,,,0.00,meteobridge,2013-07-20 15:06:00,
2013-07-20 11:12:00,85.8,72.1,29.90,WSW,244,0.9,8.1,64,0.00,,,0.00,meteobridge,2013-07-20 15:12:00,
2013-07-20 11:17:00,86.4,73.2,29.91,West,261,2.0,6.9,65,0.00,,,0.00,meteobridge,2013-07-20 15:17:00,
2013-07-20 11:22:00,86.5,72.5,29.91,WSW,247,0.0,6.0,63,0.00,,,0.00,meteobridge,2013-07-20 15:22:00,
2013-07-20 11:27:00,86.4,71.8,29.91,South,188,6.9,12.1,62,0.00,,,0.00,meteobridge,2013-07-20 15:27:00,
2013-07-20 11:32:00,86.4,73.2,29.90,SW,224,2.9,6.0,65,0.00,,,0.00,meteobridge,2013-07-20 15:32:00,
2013-07-20 11:37:00,86.4,73.2,29.90,South,176,2.0,2.9,65,0.00,,,0.00,meteobridge,2013-07-20 15:37:00,
2013-07-20 11:42:00,86.4,72.7,29.90,SW,217,4.0,8.1,64,0.00,,,0.00,meteobridge,2013-07-20 15:42:00,
2013-07-20 11:47:00,86.5,73.4,29.90,WNW,284,0.0,4.9,65,0.00,,,0.00,meteobridge,2013-07-20 15:47:00,
2013-07-20 11:52:00,87.1,72.5,29.90,West,265,6.9,10.1,62,0.00,,,0.00,meteobridge,2013-07-20 15:52:00,
2013-07-20 11:57:00,87.1,72.9,29.90,WSW,244,0.9,6.0,63,0.00,,,0.00,meteobridge,2013-07-20 15:57:00,
2013-07-20 12:02:00,87.3,73.0,29.90,ESE,103,4.9,10.1,63,0.00,,,0.00,meteobridge,2013-07-20 16:02:00,
2013-07-20 12:07:00,87.4,72.9,29.90,WSW,251,2.0,4.0,62,0.00,,,0.00,meteobridge,2013-07-20 16:07:00,
2013-07-20 12:12:00,88.0,72.9,29.90,NW,319,0.9,6.0,61,0.00,,,0.00,meteobridge,2013-07-20 16:12:00,
2013-07-20 12:17:00,88.2,73.0,29.89,WSW,246,4.0,6.0,61,0.00,,,0.00,meteobridge,2013-07-20 16:17:00,
2013-07-20 12:22:00,88.2,73.4,29.89,SW,223,4.0,6.0,62,0.00,,,0.00,meteobridge,2013-07-20 16:22:00,
2013-07-20 12:32:00,87.6,72.5,29.89,SSE,152,6.0,6.0,61,0.00,,,0.00,meteobridge,2013-07-20 16:32:00,
2013-07-20 12:37:00,87.6,72.5,29.89,WSW,239,8.1,8.1,61,0.00,,,0.00,meteobridge,2013-07-20 16:37:00,
2013-07-20 12:42:00,88.2,72.5,29.89,WSW,248,6.0,6.0,60,0.00,,,0.00,meteobridge,2013-07-20 16:42:00,
2013-07-20 12:47:00,89.1,72.3,29.88,SW,220,2.9,6.0,58,0.00,,,0.00,meteobridge,2013-07-20 16:47:00,
2013-07-20 12:52:00,89.1,73.4,29.88,WSW,237,2.9,12.1,60,0.00,,,0.00,meteobridge,2013-07-20 16:52:00,
2013-07-20 12:57:00,89.1,72.9,29.88,WSW,253,2.9,8.1,59,0.00,,,0.00,meteobridge,2013-07-20 16:57:00,
2013-07-20 13:02:00,89.2,72.5,29.88,South,171,6.0,8.9,58,0.00,,,0.00,meteobridge,2013-07-20 17:02:00,
2013-07-20 13:07:00,89.2,72.0,29.88,WSW,239,4.0,6.9,57,0.00,,,0.00,meteobridge,2013-07-20 17:07:00,
2013-07-20 13:12:00,88.9,72.1,29.88,SSW,203,0.0,6.0,58,0.00,,,0.00,meteobridge,2013-07-20 17:12:00,
2013-07-20 13:17:00,89.4,74.1,29.87,West,274,4.9,4.9,61,0.00,,,0.00,meteobridge,2013-07-20 17:17:00,
2013-07-20 13:22:00,89.8,72.5,29.87,West,267,2.9,8.1,57,0.00,,,0.00,meteobridge,2013-07-20 17:22:00,
2013-07-20 13:27:00,89.1,70.7,29.87,SSW,203,8.1,17.0,55,0.00,,,0.00,meteobridge,2013-07-20 17:27:00,
2013-07-20 13:32:00,88.5,72.3,29.87,SW,227,4.9,8.1,59,0.00,,,0.00,meteobridge,2013-07-20 17:32:00,
2013-07-20 13:37:00,89.1,71.8,29.87,South,188,6.9,12.1,57,0.00,,,0.00,meteobridge,2013-07-20 17:37:00,
2013-07-20 13:42:00,89.4,71.6,29.87,SSE,158,2.0,13.0,56,0.00,,,0.00,meteobridge,2013-07-20 17:42:00,
2013-07-20 13:47:00,89.2,71.4,29.86,South,188,4.9,10.1,56,0.00,,,0.00,meteobridge,2013-07-20 17:47:00,
2013-07-20 13:52:00,89.1,72.3,29.86,SSW,203,6.0,12.1,58,0.00,,,0.00,meteobridge,2013-07-20 17:52:00,
2013-07-20 13:57:00,88.9,72.1,29.86,South,174,2.9,8.1,58,0.00,,,0.00,meteobridge,2013-07-20 17:57:00,
2013-07-20 14:02:00,89.4,71.6,29.86,SW,217,2.9,8.1,56,0.00,,,0.00,meteobridge,2013-07-20 18:02:00,
2013-07-20 14:07:00,89.8,71.4,29.86,SW,217,2.9,11.0,55,0.00,,,0.00,meteobridge,2013-07-20 18:07:00,
2013-07-20 14:12:00,90.0,71.6,29.86,SSW,202,4.9,4.9,55,0.00,,,0.00,meteobridge,2013-07-20 18:12:00,
2013-07-20 14:17:00,90.7,71.8,29.85,SW,234,0.9,8.1,54,0.00,,,0.00,meteobridge,2013-07-20 18:17:00,
2013-07-20 14:22:00,90.7,71.8,29.85,West,261,4.0,6.9,54,0.00,,,0.00,meteobridge,2013-07-20 18:22:00,
2013-07-20 14:27:00,90.0,71.6,29.85,SSW,198,2.9,11.0,55,0.00,,,0.00,meteobridge,2013-07-20 18:27:00,
2013-07-20 14:33:00,90.1,73.4,29.84,WSW,243,0.0,6.0,58,0.00,,,0.00,meteobridge,2013-07-20 18:33:00,
2013-07-20 14:38:00,90.1,71.8,29.84,SSE,168,0.0,6.0,55,0.00,,,0.00,meteobridge,2013-07-20 18:38:00,
2013-07-20 14:48:00,90.1,70.7,29.83,SW,224,6.9,12.1,53,0.00,,,0.00,meteobridge,2013-07-20 18:48:00,
2013-07-20 14:53:00,89.2,71.4,29.83,South,178,2.9,10.1,56,0.00,,,0.00,meteobridge,2013-07-20 18:53:00,
2013-07-20 14:58:00,89.4,71.6,29.83,WSW,240,0.0,8.1,56,0.00,,,0.00,meteobridge,2013-07-20 18:58:00,
2013-07-20 15:03:00,90.5,72.1,29.83,West,272,4.9,4.9,55,0.00,,,0.00,meteobridge,2013-07-20 19:03:00,
2013-07-20 15:08:00,91.4,71.8,29.83,SW,232,0.0,10.1,53,0.00,,,0.00,meteobridge,2013-07-20 19:08:00,
2013-07-20 15:13:00,91.2,70.5,29.83,West,271,0.0,11.0,51,0.00,,,0.00,meteobridge,2013-07-20 19:13:00,
2013-07-20 15:18:00,91.0,71.6,29.83,SW,224,2.9,6.0,53,0.00,,,0.00,meteobridge,2013-07-20 19:18:00,
2013-07-20 15:28:00,90.7,71.8,29.83,West,260,2.0,4.9,54,0.00,,,0.00,meteobridge,2013-07-20 19:28:00,
2013-07-20 15:33:00,90.5,71.1,29.83,West,265,6.0,6.0,53,0.00,,,0.00,meteobridge,2013-07-20 19:33:00,
2013-07-20 15:38:00,90.1,71.8,29.83,WSW,254,0.0,6.9,55,0.00,,,0.00,meteobridge,2013-07-20 19:38:00,
2013-07-20 15:48:00,89.1,71.2,29.82,SSE,162,4.0,10.1,56,0.00,,,0.00,meteobridge,2013-07-20 19:48:00,
2013-07-20 15:53:00,88.5,70.9,29.82,WSW,248,2.0,6.9,56,0.00,,,0.00,meteobridge,2013-07-20 19:53:00,
2013-07-20 16:03:00,89.1,71.2,29.82,WSW,253,0.0,2.9,56,0.00,,,0.00,meteobridge,2013-07-20 20:03:00,
2013-07-20 16:08:00,89.8,71.4,29.82,West,265,8.1,8.1,55,0.00,,,0.00,meteobridge,2013-07-20 20:08:00,
2013-07-20 16:14:00,90.1,71.8,29.82,West,263,0.0,0.9,55,0.00,,,0.00,meteobridge,2013-07-20 20:14:00,
2013-07-20 16:19:00,89.8,71.4,29.81,West,260,4.9,4.9,55,0.00,,,0.00,meteobridge,2013-07-20 20:19:00,
2013-07-20 16:24:00,89.8,72.0,29.81,WSW,251,2.9,4.0,56,0.00,,,0.00,meteobridge,2013-07-20 20:24:00,
2013-07-20 16:29:00,90.3,70.9,29.81,SSW,210,2.0,8.1,53,0.00,,,0.00,meteobridge,2013-07-20 20:29:00,
2013-07-20 16:34:00,90.5,72.1,29.82,WSW,239,0.9,6.0,55,0.00,,,0.00,meteobridge,2013-07-20 20:34:00,
2013-07-20 16:39:00,90.7,71.2,29.82,SSW,205,0.9,6.0,53,0.00,,,0.00,meteobridge,2013-07-20 20:39:00,
2013-07-20 16:44:00,91.2,71.1,29.82,WSW,251,0.0,6.0,52,0.00,,,0.00,meteobridge,2013-07-20 20:44:00,
2013-07-20 16:49:00,91.0,70.9,29.83,WSW,256,2.0,6.0,52,0.00,,,0.00,meteobridge,2013-07-20 20:49:00,
2013-07-20 16:54:00,90.3,70.9,29.83,South,186,0.0,0.0,53,0.00,,,0.00,meteobridge,2013-07-20 20:54:00,
2013-07-20 16:59:00,90.0,71.6,29.82,WSW,237,2.0,2.9,55,0.00,,,0.00,meteobridge,2013-07-20 20:59:00,
2013-07-20 17:04:00,89.1,70.7,29.82,West,265,6.9,8.1,55,0.00,,,0.00,meteobridge,2013-07-20 21:04:00,
2013-07-20 17:09:00,87.4,69.8,29.82,WSW,254,8.1,12.1,56,0.00,,,0.00,meteobridge,2013-07-20 21:09:00,
2013-07-20 17:14:00,84.0,72.3,29.85,West,260,2.0,11.0,68,0.03,,,0.03,meteobridge,2013-07-20 21:14:00,
2013-07-20 17:19:00,81.1,71.6,29.85,SSE,167,0.9,2.0,73,0.08,,,0.08,meteobridge,2013-07-20 21:19:00,
2013-07-20 17:24:00,80.2,72.7,29.85,NE,45,2.0,4.9,78,0.08,,,0.08,meteobridge,2013-07-20 21:24:00,
2013-07-20 17:29:00,80.4,73.8,29.83,NE,45,0.0,0.0,80,0.08,,,0.08,meteobridge,2013-07-20 21:29:00,
2013-07-20 17:34:00,81.0,74.7,29.83,East,90,0.0,0.0,81,0.08,,,0.08,meteobridge,2013-07-20 21:34:00,
2013-07-20 17:39:00,81.0,73.4,29.83,ESE,103,0.0,4.9,78,0.08,,,0.08,meteobridge,2013-07-20 21:39:00,
2013-07-20 17:44:00,80.2,71.6,29.83,ESE,121,0.9,6.0,75,0.08,,,0.08,meteobridge,2013-07-20 21:44:00,
2013-07-20 17:49:00,80.4,71.8,29.83,ESE,121,0.0,0.9,75,0.08,,,0.08,meteobridge,2013-07-20 21:49:00,
2013-07-20 17:54:00,81.1,71.2,29.83,ESE,119,0.0,0.9,72,0.08,,,0.08,meteobridge,2013-07-20 21:54:00,
2013-07-20 17:59:00,81.3,71.4,29.83,NNE,28,4.9,4.9,72,0.08,,,0.08,meteobridge,2013-07-20 21:59:00,
2013-07-20 18:09:00,79.9,72.0,29.83,East,79,2.0,6.0,77,0.08,,,0.08,meteobridge,2013-07-20 22:09:00,
2013-07-20 18:20:00,79.0,71.1,29.84,East,86,2.9,8.1,77,0.00,,,0.08,meteobridge,2013-07-20 22:20:00,
2013-07-20 18:25:00,78.4,70.7,29.84,NE,41,2.0,6.0,77,0.00,,,0.08,meteobridge,2013-07-20 22:25:00,
2013-07-20 18:30:00,78.1,71.1,29.85,NE,35,2.0,2.9,79,0.00,,,0.08,meteobridge,2013-07-20 22:30:00,
2013-07-20 18:40:00,77.5,70.9,29.85,ESE,109,0.0,4.9,80,0.00,,,0.08,meteobridge,2013-07-20 22:40:00,
2013-07-20 18:45:00,77.2,70.9,29.87,NNE,16,0.0,4.9,81,0.00,,,0.08,meteobridge,2013-07-20 22:45:00,
2013-07-20 18:50:00,77.2,71.6,29.87,NE,54,2.9,6.9,83,0.04,,,0.12,meteobridge,2013-07-20 22:50:00,
2013-07-20 19:00:00,74.8,71.4,29.86,ESE,121,0.9,12.1,89,0.06,,,0.14,meteobridge,2013-07-20 23:00:00,
2013-07-20 19:05:00,74.7,71.6,29.86,ENE,58,2.9,4.9,90,0.06,,,0.14,meteobridge,2013-07-20 23:05:00,
2013-07-20 19:10:00,74.5,71.6,29.86,ENE,62,2.0,6.0,91,0.06,,,0.14,meteobridge,2013-07-20 23:10:00,
2013-07-20 19:15:00,74.5,71.6,29.85,NNE,16,0.0,2.0,91,0.06,,,0.14,meteobridge,2013-07-20 23:15:00,
2013-07-20 19:21:00,74.7,72.1,29.85,ENE,78,0.0,4.9,92,0.07,,,0.15,meteobridge,2013-07-20 23:21:00,
2013-07-20 19:26:00,74.7,72.1,29.85,East,93,0.0,2.0,92,0.07,,,0.15,meteobridge,2013-07-20 23:26:00,
2013-07-20 19:31:00,74.7,72.5,29.87,East,89,0.0,2.0,93,0.07,,,0.15,meteobridge,2013-07-20 23:31:00,
2013-07-20 19:36:00,74.1,71.6,29.87,NNE,28,0.9,6.0,92,0.07,,,0.15,meteobridge,2013-07-20 23:36:00,
2013-07-20 19:41:00,74.1,71.6,29.87,NW,308,4.9,4.9,92,0.07,,,0.15,meteobridge,2013-07-20 23:41:00,
2013-07-20 19:46:00,73.9,71.4,29.90,WNW,294,2.9,4.9,92,0.07,,,0.15,meteobridge,2013-07-20 23:46:00,
2013-07-20 19:56:00,73.6,71.8,29.90,ENE,58,4.9,8.1,94,0.07,,,0.21,meteobridge,2013-07-20 23:56:00,
2013-07-20 20:01:00,72.3,70.2,29.90,North,354,0.0,0.9,93,0.09,,,0.01,meteobridge,2013-07-21 00:01:00,
2013-07-20 20:06:00,71.2,69.1,29.90,NE,40,2.0,2.9,93,0.17,,,0.09,meteobridge,2013-07-21 00:06:00,
2013-07-20 20:16:00,70.3,68.5,29.88,ESE,116,0.9,4.9,94,0.24,,,0.16,meteobridge,2013-07-21 00:16:00,
2013-07-20 20:21:00,70.3,68.9,29.88,ESE,104,0.0,4.9,95,0.29,,,0.22,meteobridge,2013-07-21 00:21:00,
2013-07-20 20:31:00,69.8,68.5,29.88,SSW,196,0.0,4.9,96,0.31,,,0.24,meteobridge,2013-07-21 00:31:00,
2013-07-20 20:42:00,70.0,68.7,29.88,SSW,196,0.0,0.0,96,0.31,,,0.24,meteobridge,2013-07-21 00:42:00,
2013-07-20 20:47:00,70.0,69.1,29.88,SSW,196,0.0,0.0,97,0.31,,,0.24,meteobridge,2013-07-21 00:47:00,
2013-07-20 20:52:00,70.0,69.1,29.88,SSW,196,0.0,0.0,97,0.27,,,0.24,meteobridge,2013-07-21 00:52:00,
2013-07-20 20:57:00,70.0,69.1,29.88,SSW,196,0.0,0.0,97,0.24,,,0.24,meteobridge,2013-07-21 00:57:00,
2013-07-20 21:02:00,70.0,69.1,29.87,SSW,196,0.0,0.0,97,0.21,,,0.24,meteobridge,2013-07-21 01:02:00,
2013-07-20 21:07:00,70.2,69.3,29.87,SSW,196,0.0,0.0,97,0.13,,,0.24,meteobridge,2013-07-21 01:07:00,
2013-07-20 21:12:00,70.3,69.4,29.87,SSW,196,0.0,0.0,97,0.09,,,0.24,meteobridge,2013-07-21 01:12:00,
2013-07-20 21:17:00,70.5,69.6,29.88,SSW,196,0.0,2.0,97,0.07,,,0.24,meteobridge,2013-07-21 01:17:00,
2013-07-20 21:22:00,70.9,70.0,29.88,SSW,198,0.9,2.9,97,0.01,,,0.24,meteobridge,2013-07-21 01:22:00,
2013-07-20 21:28:00,70.9,70.3,29.88,SSW,196,0.0,0.0,98,0.00,,,0.24,meteobridge,2013-07-21 01:28:00,
2013-07-20 21:33:00,70.9,70.3,29.88,SSW,196,0.0,0.0,98,0.00,,,0.24,meteobridge,2013-07-21 01:33:00,
2013-07-20 21:38:00,70.9,70.3,29.88,SSW,196,0.0,0.0,98,0.00,,,0.24,meteobridge,2013-07-21 01:38:00,
2013-07-20 21:43:00,70.9,70.3,29.88,SSW,196,0.0,0.0,98,0.00,,,0.24,meteobridge,2013-07-21 01:43:00,
2013-07-20 21:48:00,70.9,70.3,29.89,SSW,196,0.0,0.0,98,0.00,,,0.24,meteobridge,2013-07-21 01:48:00,
2013-07-20 21:53:00,70.9,70.3,29.89,SSW,196,0.0,0.0,98,0.00,,,0.24,meteobridge,2013-07-21 01:53:00,
2013-07-20 21:59:00,70.5,70.0,29.89,SSW,196,0.0,0.0,98,0.00,,,0.24,meteobridge,2013-07-21 01:59:00,
2013-07-20 22:04:00,70.5,70.0,29.89,SSW,196,0.0,0.0,98,0.00,,,0.24,meteobridge,2013-07-21 02:04:00,
2013-07-20 22:14:00,70.5,70.0,29.89,SSW,196,0.0,0.0,98,0.00,,,0.24,meteobridge,2013-07-21 02:14:00,
2013-07-20 22:19:00,70.3,69.8,29.89,SSW,196,0.0,0.0,98,0.00,,,0.24,meteobridge,2013-07-21 02:19:00,
2013-07-20 22:25:00,70.3,69.8,29.89,SSW,196,0.0,0.0,98,0.00,,,0.24,meteobridge,2013-07-21 02:25:00,
2013-07-20 22:30:00,70.3,69.8,29.89,SSW,196,0.0,0.0,98,0.00,,,0.24,meteobridge,2013-07-21 02:30:00,
2013-07-20 22:35:00,70.3,69.8,29.89,SSW,196,0.0,0.0,98,0.00,,,0.24,meteobridge,2013-07-21 02:35:00,
2013-07-20 22:40:00,70.5,70.0,29.89,SSW,196,0.0,0.0,98,0.00,,,0.24,meteobridge,2013-07-21 02:40:00,
2013-07-20 22:45:00,70.3,69.8,29.89,SSW,196,0.0,0.0,98,0.00,,,0.24,meteobridge,2013-07-21 02:45:00,
2013-07-20 22:50:00,70.3,69.8,29.89,SSW,196,0.0,0.0,98,0.00,,,0.24,meteobridge,2013-07-21 02:50:00,
2013-07-20 22:56:00,70.3,69.8,29.89,SSW,196,0.0,0.0,98,0.00,,,0.24,meteobridge,2013-07-21 02:56:00,
2013-07-20 23:01:00,70.2,69.6,29.89,SSW,196,0.0,0.0,98,0.00,,,0.24,meteobridge,2013-07-21 03:01:00,
2013-07-20 23:06:00,70.2,69.6,29.89,SSW,196,0.0,0.0,98,0.00,,,0.24,meteobridge,2013-07-21 03:06:00,
2013-07-20 23:11:00,70.3,69.8,29.89,SSW,196,0.0,0.0,98,0.00,,,0.24,meteobridge,2013-07-21 03:11:00,
2013-07-20 23:16:00,70.3,69.8,29.89,SSW,196,0.0,0.0,98,0.00,,,0.24,meteobridge,2013-07-21 03:16:00,
2013-07-20 23:21:00,70.3,69.8,29.89,SSW,196,0.0,0.0,98,0.00,,,0.24,meteobridge,2013-07-21 03:21:00,
2013-07-20 23:27:00,70.3,69.8,29.89,SSW,196,0.0,0.0,98,0.00,,,0.24,meteobridge,2013-07-21 03:27:00,
2013-07-20 23:32:00,70.3,69.8,29.88,SSW,196,0.0,0.0,98,0.00,,,0.24,meteobridge,2013-07-21 03:32:00,
2013-07-20 23:37:00,70.3,69.8,29.88,SSW,196,0.0,0.0,98,0.00,,,0.24,meteobridge,2013-07-21 03:37:00,
2013-07-20 23:42:00,70.3,69.8,29.88,SSW,196,0.0,0.0,98,0.00,,,0.24,meteobridge,2013-07-21 03:42:00,
2013-07-20 23:47:00,70.3,69.8,29.89,SSW,196,0.0,0.0,98,0.00,,,0.24,meteobridge,2013-07-21 03:47:00,
2013-07-20 23:52:00,70.3,69.8,29.89,SSW,196,0.0,0.0,98,0.00,,,0.24,meteobridge,2013-07-21 03:52:00,
2013-07-20 23:58:00,70.2,69.6,29.89,SSW,196,0.0,0.0,98,0.00,,,0.24,meteobridge,2013-07-21 03:58:00,